Regional Weather Roundup
Issued by NWS

Home | Current Version | Previous Version | Text Only | Print | Product List | Glossary Off
Versions: 1 2 3 4 5 6 7 8 9 10 11 12 13 14 15 16 17 18 19 20 21 22 23 24 25 26 27 28 29 30 31 32 33 34 35 36 37 38 39 40 41 42 43 44 45 46 47 48 49 50

000
ASUS43 KIND 230209
RWRIN

WEATHER ROUNDUP FOR INDIANA
NATIONAL WEATHER SERVICE INDIANAPOLIS IN
900 PM EST THU FEB 22 2018

NOTE: "FAIR" INDICATES FEW OR NO CLOUDS BELOW 12,000 FEET WITH NO
SIGNIFICANT WEATHER AND/OR OBSTRUCTIONS TO VISIBILITY.

* - STATION DOES NOT REPORT WEATHER SUCH AS PRECIPITATION OR FOG.

+ - STATION NOT QUALITY CONTROLLED BY THE NATIONAL WEATHER SERVICE.
    USE DATA WITH CAUTION...ESPECIALLY DEWPOINT AND RELATIVE
    HUMIDITY OBSERVATIONS.

INZ001>003-010>013-019-020-230300-
NORTHWEST INDIANA

CITY           SKY/WX    TMP DP  RH WIND       PRES   REMARKS
GARY /AIRPORT/ CLOUDY    43  36  75 E16       30.40F
LA PORTE +     CLOUDY    38  34  85 E14G20    30.41F WCI  30
MICHIGAN CITY+ CLOUDY    37  34  87 E6        30.41F WCI  33
MONTICELLO +   CLOUDY    40  38  95 E7        30.39S FOG     WCI  35
RENSSELAER +   CLOUDY    41  36  81 E13       30.37F FOG
VALPARAISO     CLOUDY    40  35  83 E12       30.39F WCI  33

$$

LMZ046-743>745-230300-
SOUTHERN LAKE MICHIGAN

STATION/POSITION TIME  TEMP    WIND        PRES    WAVE
                       AIR SEA DIR/SP/G            HT
                 (UTC) (F)     (DEG/KT/KT) (MB)    (FT)
BURNS HARBOR     0140   40     100/ 10/ 16 1029.8F
MICHIGAN CITY    0140   40      90/ 11/ 13   N/A

$$

INZ004-005-014>016-021>024-230300-
NORTH CENTRAL INDIANA

CITY           SKY/WX    TMP DP  RH WIND       PRES   REMARKS
ELKHART        CLOUDY    39  32  75 E12       30.43S WCI  32
GOSHEN         CLOUDY    37  33  85 E13       30.43R WCI  29
LOGANSPORT +   CLOUDY    37  36  93 E7        30.41S WCI  32
PERU/GRISSOM   LGT RAIN  39  39 100 E12       30.40R WCI  32
ROCHESTER +    CLOUDY    41  37  87 E13       30.41F
SOUTH BEND     CLOUDY    38  33  82 E14       30.43S WCI  30
WARSAW +       CLOUDY    36  34  93 NW12      30.42F WCI  27

$$

INZ006>009-017-018-025>027-230300-
NORTHEAST INDIANA

CITY           SKY/WX    TMP DP  RH WIND       PRES   REMARKS
AUBURN +       CLOUDY    34  32  93 E15       30.44S WCI  24
FORT WAYNE     CLOUDY    36  33  89 E17       30.42S WCI  26
HUNTINGTON +   CLOUDY    34  33  96 E9        30.41S WCI  27
KENDALLVILLE + CLOUDY    35  33  92 E13G18    30.44R WCI  26

$$

INZ028-029-035-036-043>045-051>053-230300-
WEST CENTRAL INDIANA

CITY           SKY/WX    TMP DP  RH WIND       PRES   REMARKS
CRAWFORDSVL +  CLOUDY    40  40 100 E5          N/A  FOG     WCI  37
GREENCASTLE +  CLOUDY    43  41  93 E5        30.36F FOG
LAFAYETTE      CLOUDY    43  43 100 E7        30.38S FOG
TERRE HAUTE    CLOUDY    44  43  96 E8        30.34F

$$

INZ030>032-037>040-046>048-054>057-064-065-230300-
CENTRAL INDIANA

CITY           SKY/WX    TMP DP  RH WIND       PRES   REMARKS
COLUMBUS       LGT RAIN  43 N/A N/A SE6       30.38S FOG
INDIANAPOLIS   CLOUDY    44  43  96 SE6       30.36F
-EAGLE CREEK   CLOUDY    45  43  93 CALM      30.37R FOG
KOKOMO +       CLOUDY    39  37  92 E9        30.41R WCI  33
MARION +       CLOUDY    38  36  94 E13       30.39S WCI  30
MT COMFORT *+  CLOUDY    43  43 100 SE6       30.38R
SHELBYVILLE    CLOUDY    45  42  89 SE7       30.36S FOG
ZIONSVILLE +   CLOUDY    42  42  99 SE7       30.39R FOG

$$

INZ033-034-041-042-049-050-058-059-230300-
EAST CENTRAL INDIANA

CITY           SKY/WX    TMP DP  RH WIND       PRES   REMARKS
MUNCIE         CLOUDY    43  39  86 E8        30.38S FOG
RICHMOND +     CLOUDY    41  41 100 SE13      30.38F FOG

$$

INZ060-061-067>069-081>083-085>088-230300-
SOUTHWEST INDIANA

CITY           SKY/WX    TMP DP  RH WIND       PRES   REMARKS
EVANSVILLE     FOG       49  49 100 E3        30.33S VSB 1
HUNTINGBURG +  FOG       48  46  93 E6        30.34F VSB 1
WASHINGTON +   FOG       46  44  94 E7        30.34S VSB 1

$$

INZ062-063-066-070>080-084-089>092-230300-
SOUTH CENTRAL AND SOUTHEAST INDIANA

CITY           SKY/WX    TMP DP  RH WIND       PRES   REMARKS
BATESVILLE +   CLOUDY    43  43 100 MISG      30.37S FOG
BEDFORD +      CLOUDY    45  43  93 E3        30.35F FOG
BLOOMINGTON    CLOUDY    44  43  96 E6        30.34F FOG
FRENCH LICK *+ CLOUDY    45 N/A N/A E5        30.35S VSB 1/2
MADISON *+     CLOUDY    45  43  93 NE5       30.37F
NORTH VERNON + CLOUDY    43  43 100 E5        30.37F FOG
SEYMOUR +      CLOUDY    46  46 100 E5        30.36F FOG

$$





USA.gov is the U.S. government's official web portal to all federal, state and local government web resources and services.